RH
99 98 96 94 90 87 91 95 93 94 94 94 99 98 98 98 96 96 97 94 94 90 85 82 81 81 85 88 90 91 91 87 85 85 88 91 92 90 88 84 77 83 88
97 98 98 96 96 92 88 91 93 92 92 93 94 98 96 96 96 96 95 94 94 93 90 84 84 83 81 87 91 91 91 89 87 86 88 90 90 88 86 80 76 79 85
94 95 98 97 93 95 93 95 94 97 96 94 96 97 96 96 95 95 93 94 94 95 92 90 89 86 86 87 92 92 91 91 89 88 89 90 89 87 86 82 77 75 79
89 96 96 96 91 90 96 97 96 98 96 96 92 96 96 98 96 92 93 93 95 90 93 92 92 91 89 88 89 88 89 91 90 89 89 89 87 86 84 82 80 76 76
91 94 98 96 95 94 92 99 96 96 97 97 95 94 97 96 97 90 92 94 96 94 92 91 94 94 94 90 89 86 84 87 89 88 89 90 87 86 84 82 80 78 74
83 95 95 97 97 97 92 94 97 96 96 94 93 95 97 95 97 95 92 89 92 94 95 94 93 94 96 94 91 89 81 80 83 85 88 89 88 87 84 83 80 79 76
85 89 90 92 92 95 93 91 92 97 94 93 94 98 98 97 98 92 90 94 92 92 94 94 92 92 96 96 94 91 84 80 83 86 88 89 88 87 85 84 82 81 78
74 71 80 89 91 91 94 92 94 92 91 90 97 92 95 98 98 95 95 92 91 89 93 93 94 93 93 94 93 93 90 85 82 85 87 91 90 89 86 85 83 81 79
74 78 81 85 88 91 92 93 94 89 89 90 88 94 96 92 97 98 94 94 93 95 90 91 94 93 93 94 94 95 97 95 89 84 86 90 90 90 88 87 88 82 82
75 76 77 79 84 86 89 91 88 96 91 89 93 97 93 97 96 99 99 93 94 93 91 92 91 93 93 94 95 96 99 100 97 92 87 90 89 90 90 89 91 90 85
75 77 79 82 86 89 90 90 91 90 93 91 87 91 96 93 97 97 95 100 97 87 87 90 89 91 92 91 93 96 100 100 99 95 93 90 89 86 85 91 93 91 89
75 74 75 80 84 86 88 90 92 92 92 90 86 85 88 92 88 96 91 92 92 92 91 91 92 91 91 92 91 95 99 100 100 98 96 93 91 89 88 92 92 92 90
79 77 77 81 78 74 86 86 91 89 92 95 86 84 85 89 88 88 89 82 89 95 98 97 92 93 92 93 90 96 99 100 100 99 98 96 94 91 89 91 92 91 90
81 78 81 83 83 80 77 82 92 92 88 90 92 92 88 82 91 88 96 94 95 98 99 94 97 95 92 92 91 98 91 100 100 100 99 98 97 95 95 94 93 92 92
81 82 86 88 87 87 83 84 91 85 92 94 95 91 92 93 94 88 87 89 94 98 95 88 92 86 90 90 93 94 94 100 100 100 100 99 98 97 97 97 96 95 94
90 88 88 88 88 91 89 86 88 88 92 93 91 88 91 91 95 95 95 95 95 92 90 82 85 82 96 94 93 95 93 100 100 100 100 100 98 97 98 98 99 98 97
95 90 88 88 89 90 91 92 91 90 91 90 91 92 85 83 95 98 98 93 95 92 93 90 90 92 98 98 96 98 96 97 95 100 100 100 100 100 100 100 100 100 99
96 90 87 86 87 88 89 91 93 93 93 93 95 91 83 87 93 98 98 96 94 92 92 91 90 97 95 95 93 97 97 94 94 98 100 100 100 100 100 100 100 100 100
96 95 88 90 88 89 89 89 89 90 92 93 93 93 95 94 96 95 95 96 93 91 91 91 86 93 95 99 98 96 96 96 94 98 100 100 100 100 100 100 100 100 100
92 93 95 92 89 87 87 86 87 90 90 91 93 93 93 94 96 97 96 98 94 94 92 92 88 91 92 95 97 96 99 97 96 96 100 99 100 100 100 100 100 100 100
92 88 85 87 90 92 93 88 86 89 90 91 92 88 94 93 93 95 94 97 96 98 98 96 92 90 92 98 98 95 96 94 99 99 99 99 99 99 98 100 99 99 100
89 88 89 89 94 94 90 92 88 90 89 91 94 90 86 91 89 90 90 93 95 97 98 98 99 98 99 98 96 98 100 99 99 96 99 100 99 99 100 99 98 99 100
90 89 89 86 86 90 84 84 87 95 94 95 95 92 89 88 89 86 86 87 91 93 95 94 96 98 96 98 98 96 97 98 99 98 98 100 99 100 99 96 94 94 94
92 92 90 89 85 82 75 80 81 89 91 94 96 96 95 94 95 93 90 91 92 95 96 95 97 98 98 98 99 98 98 97 99 97 96 100 100 100 100 99 93 93 93
91 91 90 88 89 82 71 76 85 88 90 91 90 90 92 94 94 94 95 95 95 95 94 92 94 92 92 92 92 95 97 98 100 99 97 99 100 100 100 100 99 92 91
90 88 89 88 80 87 70 72 84 87 91 90 89 91 84 88 86 85 92 94 94 96 96 95 94 93 94 95 93 96 96 96 98 99 98 98 98 100 100 98 98 98 98
Wind_Speed
3 3 5 5 7 7 7 6 6 6 6 8 6 6 6 6 6 4 3 10 12 14 16 18 20 20 19 17 17 16 16 17 16 15 14 13 13 12 12 12 11 12 13
5 3 4 6 6 7 8 8 8 7 7 6 10 7 8 6 6 6 4 4 11 13 14 17 18 19 19 19 17 17 17 16 16 16 15 14 13 12 10 10 10 11 15
5 5 5 5 8 8 10 8 8 6 6 6 9 8 6 8 7 8 6 5 6 13 14 12 14 18 19 20 19 18 18 18 17 16 16 15 14 13 11 11 12 11 11
7 5 5 5 7 12 10 9 9 7 8 8 8 8 7 6 7 8 6 6 5 5 11 14 14 16 19 20 21 22 21 19 18 18 17 17 16 16 14 14 13 13 11
7 5 4 7 7 9 8 7 5 8 6 6 8 8 8 7 8 7 9 7 7 6 6 11 12 13 14 17 21 24 23 21 20 20 19 19 19 18 17 17 15 15 15
9 6 5 5 6 10 10 6 9 6 6 9 8 9 9 9 7 8 9 7 7 8 7 7 7 8 14 16 19 20 23 24 24 23 22 22 21 20 19 19 19 18 17
8 7 5 6 6 6 9 9 11 8 6 9 8 6 6 8 9 9 8 8 9 9 8 8 6 6 7 15 18 21 25 24 24 23 23 23 22 21 21 22 21 21 19
9 9 8 7 7 7 9 10 11 10 12 11 9 9 7 4 7 9 7 9 11 7 9 10 10 10 9 8 14 20 23 24 24 24 22 22 23 22 22 22 23 22 21
11 10 9 8 8 6 8 9 10 17 14 15 17 10 4 7 5 5 13 10 10 8 8 9 11 11 11 10 12 15 18 18 22 23 21 22 24 24 24 22 23 23 22
11 11 11 10 10 8 10 9 10 12 14 15 7 15 13 2 5 4 2 11 11 12 13 9 10 10 11 10 12 14 17 18 18 21 20 21 22 23 24 24 24 24 25
10 11 10 10 10 8 10 10 11 12 13 13 15 9 6 7 7 6 3 4 7 11 10 10 10 10 12 12 10 12 17 18 22 23 21 20 22 22 21 24 23 25 24
8 10 12 10 10 10 12 11 10 14 15 17 15 13 12 8 9 9 9 4 7 5 10 8 9 10 10 11 13 16 18 19 20 22 22 22 20 19 20 23 26 26 27
8 9 11 11 9 12 11 11 11 11 12 11 18 14 11 12 13 11 9 9 6 2 3 4 7 9 9 10 13 17 18 19 21 21 19 21 21 19 19 24 26 28 28
9 11 11 12 13 13 12 12 8 10 12 10 10 12 12 15 11 14 8 10 5 0 1 3 2 7 9 10 14 17 15 20 21 19 20 21 20 20 18 20 24 26 26
10 11 11 12 12 11 13 11 8 12 8 8 7 10 9 8 15 17 15 9 8 3 2 7 11 9 9 9 13 12 15 17 21 20 21 21 20 20 20 20 22 23 24
12 11 11 10 10 13 12 10 7 10 9 8 8 10 10 9 9 9 8 9 8 10 14 15 10 11 5 8 10 12 14 12 20 20 20 21 20 18 17 19 22 22 23
13 13 12 12 12 12 10 7 10 10 10 9 9 11 13 14 9 7 6 6 8 9 11 5 6 7 5 10 8 8 10 10 9 19 20 22 20 19 18 18 18 19 21
13 14 13 14 15 14 13 13 12 9 6 6 4 10 12 8 12 7 5 8 8 9 9 13 7 6 11 9 8 8 9 8 9 13 21 21 20 20 19 19 19 20 19
15 15 16 17 18 17 16 15 14 15 15 14 14 13 13 12 7 4 5 6 7 7 10 8 8 5 7 3 6 7 8 9 7 10 17 18 17 17 16 16 17 16 17
17 17 16 17 19 19 19 18 18 17 17 17 16 16 17 17 15 11 8 8 3 8 9 9 11 7 6 4 4 4 5 6 7 7 8 11 13 14 16 14 14 16 16
16 16 19 20 19 19 17 18 19 20 19 18 18 17 19 20 28 24 11 12 9 5 5 8 10 9 8 5 7 4 9 7 5 0 5 5 4 5 7 11 12 18 16
17 18 20 21 21 16 32 32 23 19 20 20 18 18 18 24 20 27 27 29 23 13 6 3 4 5 5 5 5 2 2 4 6 3 3 3 3 4 2 4 7 6 8
15 19 19 20 21 20 32 31 30 18 18 19 20 17 17 17 21 17 23 27 27 30 26 12 10 7 5 7 6 8 5 2 5 7 4 1 3 4 3 5 10 8 7
16 17 18 19 19 21 34 31 29 18 18 21 20 20 19 20 23 19 16 18 18 18 19 13 13 11 11 10 4 3 3 1 4 5 9 1 4 2 2 4 10 10 10
14 15 16 18 19 21 36 32 20 16 16 19 17 20 20 20 31 29 17 16 15 16 15 21 22 23 26 26 22 8 5 5 3 3 8 3 3 3 2 2 3 9 7
12 11 15 18 27 19 35 35 24 12 15 13 15 16 31 25 31 30 17 14 15 14 14 15 13 15 18 18 25 12 8 7 4 3 8 7 4 2 4 1 2 3 2
Wind_Direction
247 231 225 222 222 218 214 198 197 194 212 233 235 210 198 206 232 225 213 209 208 210 219 208 199 198 195 189 189 186 186 187 189 189 184 183 182 183 186 190 190 174 175
328 284 249 231 230 228 205 194 193 195 200 223 238 232 220 207 207 225 224 221 211 212 217 219 209 203 200 195 194 192 190 192 194 196 192 190 187 194 197 200 189 194 180
331 317 283 305 264 236 220 198 191 188 189 200 235 231 227 229 216 219 218 221 223 221 208 223 209 206 204 199 198 197 194 194 196 198 196 194 193 196 195 191 191 199 198
317 301 301 273 277 291 225 204 179 195 205 203 222 229 224 220 228 228 221 215 220 217 213 212 212 205 203 203 200 203 202 196 198 198 201 198 198 198 198 192 191 196 191
327 328 295 309 289 215 242 294 223 191 213 218 217 224 223 212 211 221 227 219 209 207 206 207 213 206 205 212 206 205 206 203 202 201 203 201 203 203 199 195 193 193 198
332 341 329 307 314 315 290 169 263 258 220 230 224 224 231 216 200 210 221 212 214 208 200 210 208 219 204 207 215 213 215 215 211 210 207 205 206 207 203 199 197 197 196
320 327 313 304 298 292 303 258 215 249 265 252 243 231 240 229 209 212 210 214 209 212 205 200 215 210 210 209 212 213 214 223 219 217 214 205 207 209 206 202 200 201 199
318 307 304 289 297 297 287 298 227 225 231 254 252 243 225 220 221 217 197 203 216 206 208 210 205 209 210 208 217 217 218 222 229 223 214 206 208 210 210 209 203 201 200
303 293 288 287 286 286 279 273 274 214 212 232 238 245 230 228 188 185 211 202 202 206 211 210 212 208 209 210 208 213 217 218 227 231 221 212 207 208 211 211 211 202 207
296 289 288 283 275 274 265 270 267 251 218 219 199 218 230 240 228 201 198 205 200 210 211 208 210 211 210 214 211 212 203 214 221 231 231 217 210 210 209 211 211 203 209
287 276 273 280 276 267 272 272 272 267 227 221 213 230 257 259 229 258 219 194 209 222 216 216 212 205 206 213 214 215 209 208 215 223 224 221 216 218 217 208 206 207 211
294 274 264 256 264 264 263 260 260 255 260 224 223 210 226 233 244 227 231 205 206 193 204 208 217 219 215 209 215 212 206 209 214 218 221 222 217 216 205 201 206 208 215
283 275 273 273 265 268 267 271 273 275 278 254 225 223 224 236 241 246 238 247 224 169 115 206 218 221 221 217 216 207 206 211 211 211 219 222 215 213 212 202 208 211 215
301 296 272 265 265 265 259 261 263 268 273 274 283 221 226 232 228 219 220 209 244 352 11 292 278 222 217 221 225 200 218 212 217 206 211 219 217 208 204 203 208 214 214
317 317 304 288 262 267 252 240 247 255 267 286 273 255 250 233 231 230 212 190 180 177 217 250 256 220 226 224 225 210 216 207 206 212 209 217 217 212 202 202 207 210 215
341 334 331 322 300 274 237 236 240 252 249 251 258 262 263 247 236 221 200 191 196 198 222 205 219 227 209 237 232 217 223 211 204 213 208 215 211 209 207 205 208 208 211
357 357 359 1 358 4 355 278 237 239 242 251 252 245 241 248 237 230 221 196 192 189 224 235 214 198 195 226 228 222 230 216 215 205 209 212 209 210 205 208 208 209 211
3 10 13 20 19 15 18 12 3 330 271 281 334 264 244 240 237 229 200 202 201 195 208 225 215 211 209 208 216 209 226 225 227 206 214 214 203 207 205 207 212 208 209
6 17 25 28 30 27 27 27 26 31 32 33 35 36 20 8 337 265 201 200 210 207 213 218 226 218 208 168 206 208 217 227 224 221 209 208 206 212 218 218 224 222 214
13 22 25 33 36 35 34 34 34 35 38 32 28 31 39 31 20 350 9 355 265 216 219 230 239 241 237 215 216 202 212 210 226 218 201 205 201 202 206 211 220 226 223
20 23 30 33 35 40 37 39 42 39 36 38 33 24 31 33 41 40 33 7 359 318 263 227 231 232 227 205 219 195 229 222 222 203 199 182 154 194 191 200 214 222 220
27 28 31 33 32 34 39 42 47 47 41 37 35 28 30 29 31 36 37 37 37 14 349 16 22 349 25 345 348 357 283 177 218 9 263 135 173 173 104 87 94 104 220
27 35 33 36 37 38 39 43 44 44 42 40 36 30 31 28 26 28 33 36 34 37 37 30 45 20 35 334 338 340 43 5 15 356 312 158 5 88 86 74 65 61 67
29 32 33 32 35 35 37 36 39 43 41 39 34 32 30 31 30 27 28 35 32 32 34 33 32 31 25 13 350 320 10 188 129 56 359 261 339 69 97 95 70 59 53
30 32 32 31 33 35 36 38 35 40 41 41 33 33 34 33 32 32 31 29 26 26 23 24 35 35 35 25 36 19 350 23 63 27 30 351 308 334 84 94 71 61 45
32 32 33 32 31 29 34 35 36 33 37 35 34 32 34 40 38 36 36 29 29 10 16 6 18 16 30 19 29 35 15 20 31 49 11 358 286 327 31 14 73 67 7